When you browse on this site, cookies collect data to enhance your experience and personalize the content and advertising you see.
Visit our Privacy Policy to learn more. By continuing to use the site, you agree to this use of cookies and data.

Hourly Weather Kalgoorlie

Today, 15 August, Saturday

Time Temperature Precipitation Wind Pressure Humidity
00:00 +12°C° 0 mm 1 mps 730 mmHg 62%
01:00 +11°C° 0 mm 1 mps 730 mmHg 65%
02:00 +11°C° 0 mm 1 mps 730 mmHg 68%
03:00 +10°C° 0 mm 1 mps 730 mmHg 67%
04:00 +10°C° 0 mm 1 mps 730 mmHg 67%
05:00 +10°C° 0 mm 1 mps 729 mmHg 67%
06:00 +10°C° 0 mm 2 mps 730 mmHg 62%
07:00 +11°C° 0 mm 3 mps 730 mmHg 57%
08:00 +12°C° 0 mm 5 mps 730 mmHg 52%
09:00 +14°C° 0 mm 5 mps 730 mmHg 46%
10:00 +16°C° 0 mm 6 mps 730 mmHg 40%
11:00 +18°C° 0 mm 7 mps 729 mmHg 34%
12:00 +20°C° 0 mm 7 mps 729 mmHg 31%
13:00 +21°C° 0 mm 7 mps 728 mmHg 28%
14:00 +22°C° 0 mm 7 mps 727 mmHg 24%
15:00 +21°C° 0 mm 6 mps 727 mmHg 26%
16:00 +21°C° 0 mm 5 mps 726 mmHg 27%
17:00 +20°C° 0 mm 4 mps 726 mmHg 29%
18:00 +19°C° 0 mm 4 mps 726 mmHg 29%
19:00 +19°C° 0 mm 4 mps 726 mmHg 30%
20:00 +18°C° 0 mm 4 mps 726 mmHg 30%
21:00 +17°C° 0 mm 5 mps 725 mmHg 30%
22:00 +16°C° 0 mm 5 mps 724 mmHg 29%
23:00 +16°C° 0 mm 5 mps 724 mmHg 29%

Tomorrow, 16 August, Sunday

Time Temperature Precipitation Wind Pressure Humidity
00:00 +16°C° 0 mm 6 mps 724 mmHg 30%
01:00 +16°C° 0 mm 6 mps 723 mmHg 31%
02:00 +15°C° 0 mm 6 mps 723 mmHg 32%
03:00 +15°C° 0 mm 6 mps 722 mmHg 40%
04:00 +15°C° 0 mm 6 mps 722 mmHg 48%
05:00 +15°C° 0 mm 6 mps 721 mmHg 56%
06:00 +15°C° 0 mm 8 mps 721 mmHg 60%
07:00 +14°C° 0 mm 11 mps 721 mmHg 63%
08:00 +15°C° 0 mm 13 mps 722 mmHg 67%
09:00 +15°C° 0.1 mm 13 mps 722 mmHg 60%
10:00 +17°C° 0.1 mm 13 mps 722 mmHg 54%
11:00 +18°C° 0.1 mm 13 mps 722 mmHg 48%
12:00 +18°C° 0 mm 13 mps 722 mmHg 45%
13:00 +18°C° 0 mm 12 mps 722 mmHg 42%
14:00 +18°C° 0 mm 12 mps 721 mmHg 39%
15:00 +17°C° 0 mm 12 mps 722 mmHg 40%
16:00 +16°C° 0 mm 11 mps 722 mmHg 42%
17:00 +14°C° 0 mm 11 mps 723 mmHg 43%
18:00 +13°C° 0 mm 10 mps 723 mmHg 48%
19:00 +12°C° 0 mm 8 mps 724 mmHg 54%
20:00 +11°C° 0 mm 7 mps 724 mmHg 59%
21:00 +10°C° 0 mm 8 mps 725 mmHg 61%
22:00 +9°C° 0 mm 8 mps 725 mmHg 63%
23:00 +7°C° 0 mm 8 mps 726 mmHg 66%

Day after tomorrow, 17 August, Monday

Time Temperature Precipitation Wind Pressure Humidity
00:00 +7°C° 0 mm 8 mps 726 mmHg 68%
01:00 +6°C° 0 mm 8 mps 725 mmHg 70%
02:00 +6°C° 0 mm 8 mps 725 mmHg 72%
03:00 +6°C° 0 mm 8 mps 725 mmHg 72%
04:00 +6°C° 0 mm 7 mps 726 mmHg 72%
05:00 +6°C° 0 mm 7 mps 726 mmHg 72%
06:00 +6°C° 0 mm 8 mps 726 mmHg 71%
07:00 +7°C° 0 mm 8 mps 727 mmHg 70%
08:00 +7°C° 0 mm 9 mps 727 mmHg 70%
09:00 +8°C° 0 mm 9 mps 727 mmHg 65%
10:00 +10°C° 0 mm 9 mps 727 mmHg 60%
11:00 +10°C° 0 mm 9 mps 728 mmHg 55%
12:00 +11°C° 0 mm 9 mps 727 mmHg 52%
13:00 +11°C° 0 mm 9 mps 727 mmHg 50%
14:00 +12°C° 0 mm 10 mps 726 mmHg 48%
15:00 +12°C° 0 mm 9 mps 726 mmHg 49%
16:00 +12°C° 0 mm 9 mps 727 mmHg 50%
17:00 +11°C° 0 mm 8 mps 727 mmHg 51%
18:00 +11°C° 0 mm 7 mps 727 mmHg 55%
19:00 +10°C° 0 mm 6 mps 727 mmHg 58%
20:00 +9°C° 0 mm 6 mps 728 mmHg 62%
21:00 +9°C° 0 mm 5 mps 728 mmHg 65%
22:00 +8°C° 0 mm 5 mps 728 mmHg 69%
23:00 +8°C° 0 mm 5 mps 728 mmHg 72%

18 August, Tuesday

Time Temperature Precipitation Wind Pressure Humidity
00:00 +7°C° 0 mm 5 mps 728 mmHg 74%
01:00 +7°C° 0 mm 6 mps 728 mmHg 76%
02:00 +5°C° 0 mm 6 mps 728 mmHg 78%
03:00 +5°C° 0 mm 6 mps 728 mmHg 80%
04:00 +6°C° 0 mm 5 mps 728 mmHg 82%
05:00 +5°C° 0 mm 5 mps 729 mmHg 85%
06:00 +5°C° 0 mm 6 mps 729 mmHg 79%
07:00 +6°C° 0 mm 7 mps 729 mmHg 73%
08:00 +6°C° 0 mm 8 mps 729 mmHg 68%
09:00 +8°C° 0 mm 9 mps 730 mmHg 62%
10:00 +11°C° 0 mm 9 mps 730 mmHg 55%
11:00 +12°C° 0 mm 9 mps 730 mmHg 49%
12:00 +13°C° 0 mm 9 mps 730 mmHg 47%
13:00 +13°C° 0 mm 8 mps 729 mmHg 44%
14:00 +15°C° 0 mm 8 mps 729 mmHg 42%
15:00 +15°C° 0 mm 7 mps 729 mmHg 44%
16:00 +14°C° 0 mm 7 mps 729 mmHg 46%
17:00 +14°C° 0 mm 6 mps 729 mmHg 48%
18:00 +13°C° 0 mm 6 mps 730 mmHg 52%
19:00 +10°C° 0 mm 5 mps 730 mmHg 57%
20:00 +9°C° 0 mm 5 mps 731 mmHg 61%
21:00 +10°C° 0 mm 4 mps 731 mmHg 63%
22:00 +9°C° 0 mm 3 mps 731 mmHg 64%
23:00 +9°C° 0 mm 3 mps 731 mmHg 66%

19 August, Wednesday

Time Temperature Precipitation Wind Pressure Humidity
00:00 +8°C° 0 mm 3 mps 731 mmHg 68%
01:00 +8°C° 0 mm 3 mps 731 mmHg 70%
02:00 +8°C° 0 mm 3 mps 731 mmHg 72%
03:00 +7°C° 0 mm 3 mps 731 mmHg 76%
04:00 +7°C° 0 mm 3 mps 731 mmHg 80%
05:00 +7°C° 0 mm 3 mps 731 mmHg 84%
06:00 +7°C° 0 mm 3 mps 732 mmHg 80%
07:00 +8°C° 0 mm 3 mps 732 mmHg 75%
08:00 +7°C° 0 mm 4 mps 732 mmHg 70%
09:00 +10°C° 0 mm 4 mps 733 mmHg 62%
10:00 +11°C° 0 mm 3 mps 733 mmHg 55%
11:00 +13°C° 0 mm 3 mps 733 mmHg 47%
12:00 +14°C° 0 mm 3 mps 732 mmHg 43%
13:00 +14°C° 0 mm 3 mps 731 mmHg 39%
14:00 +16°C° 0 mm 2 mps 731 mmHg 35%
15:00 +16°C° 0 mm 2 mps 731 mmHg 35%
16:00 +16°C° 0 mm 2 mps 731 mmHg 35%
17:00 +16°C° 0 mm 2 mps 731 mmHg 36%
18:00 +15°C° 0 mm 1 mps 732 mmHg 39%
19:00 +14°C° 0 mm 1 mps 732 mmHg 42%
20:00 +13°C° 0 mm 1 mps 732 mmHg 45%
21:00 +12°C° 0 mm 1 mps 732 mmHg 46%
22:00 +12°C° 0 mm 1 mps 733 mmHg 47%
23:00 +12°C° 0 mm 1 mps 733 mmHg 48%

20 August, Thursday

Time Temperature Precipitation Wind Pressure Humidity
00:00 +10°C° 0 mm 2 mps 733 mmHg 52%
01:00 +9°C° 0 mm 2 mps 732 mmHg 57%
02:00 +9°C° 0 mm 3 mps 732 mmHg 61%
03:00 +9°C° 0 mm 3 mps 732 mmHg 64%
04:00 +8°C° 0 mm 3 mps 732 mmHg 67%
05:00 +8°C° 0 mm 3 mps 732 mmHg 70%
06:00 +9°C° 0 mm 3 mps 733 mmHg 68%
07:00 +9°C° 0 mm 3 mps 733 mmHg 66%
08:00 +10°C° 0 mm 3 mps 734 mmHg 63%
09:00 +12°C° 0 mm 3 mps 734 mmHg 55%
10:00 +14°C° 0 mm 3 mps 734 mmHg 47%
11:00 +16°C° 0 mm 3 mps 733 mmHg 39%
12:00 +17°C° 0 mm 2 mps 733 mmHg 36%
13:00 +18°C° 0 mm 2 mps 732 mmHg 33%
14:00 +19°C° 0 mm 2 mps 732 mmHg 30%
15:00 +18°C° 0 mm 2 mps 732 mmHg 32%
16:00 +18°C° 0 mm 2 mps 732 mmHg 33%
17:00 +19°C° 0 mm 1 mps 732 mmHg 35%
18:00 +18°C° 0 mm 1 mps 733 mmHg 37%
19:00 +16°C° 0 mm 1 mps 733 mmHg 39%
20:00 +15°C° 0 mm 1 mps 734 mmHg 40%
21:00 +14°C° 0 mm 2 mps 734 mmHg 41%
22:00 +14°C° 0 mm 2 mps 734 mmHg 42%
23:00 +14°C° 0 mm 2 mps 734 mmHg 42%
Show more